Weather Roundup
Issued by NWS Springfield, MO

Home | Current Version | Previous Version | Text Only | Print | Product List | Glossary On
Versions: 1 2 3 4 5 6 7 8 9 10 11 12 13 14 15 16 17 18 19 20 21 22 23 24 25 26 27 28 29 30 31 32 33 34 35 36 37 38 39 40 41 42 43 44 45 46 47 48 49 50
000
NZUS99 KSGF 260507
HRRSGF

HOURLY WEATHER
NATIONAL WEATHER SERVICE SPRINGFIELD MO
1200 AM CDT SAT JUL 26 2014

......SGF CWA......

CITY           SKY/WX    TMP DP  RH WIND       PRES   REMARKS
SPRINGFIELD    CLEAR     76  70  82 S10       29.93R
JOPLIN         CLEAR     80  71  74 S16       29.91S
WEST PLAINS    CLEAR     73  68  84 S7        29.98S
ROLLA          CLEAR     75  67  76 S12       29.92R
OSAGE BEACH    CLEAR     79  70  73 S5        29.90R
BRANSON        CLEAR     73  70  88 S5        29.97S

......SURROUNDING SGF CWA......

CITY           SKY/WX    TMP DP  RH WIND       PRES   REMARKS
CHANUTE        CLEAR     81  72  74 S16G23    29.87S
PARSONS        CLEAR     80  72  76 S8        29.89S
COFFEYVILLE    CLEAR     81  74  79 S14       29.88S
EMPORIA        PTCLDY    82  73  74 S18       29.83S
GROVE OK       CLEAR     79  72  78 S7        29.93S
ROGERS AR      CLEAR     76  70  82 S10       29.98S
SILOAM SPRINGS CLEAR     75  66  73 S8        29.98S
HARRISON AR    CLEAR     75  71  87 S8        29.97S
NEAR YELLVILLE CLEAR     75  72  88 SW7       29.96R

......KANSAS AND MISSOURI......

CITY           SKY/WX    TMP DP  RH WIND       PRES   REMARKS
KANSAS CTY INT PTCLDY    83  74  74 SW16      29.81R
DOWNTOWN KC    CLEAR     85  74  69 SW17      29.80R HX  92
COLUMBIA       CLEAR     77  71  82 S8        29.87R
SEDALIA        CLEAR     81  70  69 SW10      29.86S
ST JOSEPH      CLEAR     82  73  74 SW10      29.77S
ST LOUIS       CLEAR     76  65  68 S9        29.91F
SPIRIT OF STL  CLEAR     73  65  75 S6        29.89F
KIRKSVILLE     CLEAR     72  69  90 S7        29.83F
WICHITA        PTCLDY    84  68  58 S14       29.84S
TOPEKA         CLEAR     87  73  62 S10G23    29.80R HX  94
OLATHE         CLEAR     81  73  76 S13       29.83S

......TENNESSEE......

CITY           SKY/WX    TMP DP  RH WIND       PRES   REMARKS
MEMPHIS        PTCLDY    74  66  76 SW5       30.00R
NASHVILLE      MOCLDY    71  64  78 CALM      30.03R

......ARKANSAS.......

CITY           SKY/WX    TMP DP  RH WIND       PRES   REMARKS
FAYETTEVILLE   CLEAR     76  72  87 S5        29.98R
FT SMITH       CLEAR     77  73  87 CALM      29.94S
LITTLE ROCK    CLEAR     76  71  85 S3        29.98R

......OKLAHOMA.......

CITY           SKY/WX    TMP DP  RH WIND       PRES   REMARKS
TULSA          CLEAR     83  73  72 S14       29.89R
PONCA CITY     CLEAR     84  70  62 S12G18    29.87R
MCALESTER      CLEAR     81  72  74 S7        29.95S
OKLAHOMA CITY  PTCLDY    82  64  54 S9        29.92R

......IOWA............

CITY           SKY/WX    TMP DP  RH WIND       PRES   REMARKS
DES MOINES     PTCLDY    75  70  84 E7        29.79S
QUAD CITIES    CLOUDY    69  62  78 SE9       29.87F

......ILLINOIS........

CITY           SKY/WX    TMP DP  RH WIND       PRES   REMARKS
QUINCY         PTCLDY    71  64  78 SE8       29.85S
CHICAGO        MOCLDY    70  57  63 SW8       29.92S




USA.gov is the U.S. government's official web portal to all federal, state and local government web resources and services.